Location: Krakow
(50.0830°N, 19.9170°E)
Time: 11:23:33
(UTC+01:00)

Transit 2A - Pass Details

Date: 17 February 2023
Orbit: 591 x 964 km, 66.7° (Epoch: 21 March)

Event Time Altitude Azimuth Distance (km) Brightness Sun altitude
Rises 12:46:38 0° 183° (S) 3,039 10.3 26.9°
Reaches altitude 10° 12:49:03 10° 173° (S) 2,183 9.7 26.8°
Maximum altitude 12:53:26 32° 112° (ESE) 1,300 7.5 26.6°
Drops below altitude 10° 12:58:16 10° 51° (NE) 2,419 8.2 26.4°
Sets 13:01:03 0° 42° (NE) 3,422 8.9 26.2°
